Edwards AFB North Base, CA

12:54 PM PDT on April 29, 2017 (GMT -0700)
Edwards AFB North Base

Weather History for K9L2 - January, 2014

Change the Weather History Date:

Friday, January 10, 2014

  Actual Average (KEDW) Record (KEDW)
Temperature  
Mean Temperature 44 °F -  
Max Temperature 63 °F 57 °F 86 °F (2005)
Min Temperature 26 °F 30 °F 24 °F (1999)
Degree Days  
Heating Degree Days 20    
Moisture  
Dew Point 27 °F    
Average Humidity 57    
Maximum Humidity 81    
Minimum Humidity 31    
Precipitation  
Precipitation 0.00 in - - ()
Sea Level Pressure  
Sea Level Pressure 30.16 in    
Wind  
Wind Speed 2 mph (NNW)    
Max Wind Speed 12 mph    
Max Gust Speed -    
Visibility 10 miles    
Events      
Averages and records for this station are not official NWS values.
T = Trace of Precipitation, MM = Missing Value Source: NWS Daily Summary

Daily Weather History Graph

Daily Weather History Graph

Search for Another Location

Airport or City:

Trip Planner

Search our weather history database for the weather conditions in past years. The results will help you decide how hot, cold, wet, or windy it might be!

Date:

Astronomy

Jan. 10, 2014 Rise Set
Actual Time 6:59 AM PST 4:58 PM PST
Civil Twilight 6:32 AM PST 5:26 PM PST
Nautical Twilight 6:00 AM PST 5:57 PM PST
Astronomical Twilight 5:30 AM PST 6:28 PM PST
Moon 1:02 PM PST (1/10) 2:15 AM PST (1/10)
Length of Visible Light 10h 54m
Length of Day
9h 58m
Waxing Gibbous, 76% of the Moon is Illuminated
Jan 10
Waxing Gibbous
Jan 15
Full
Jan 23
Last Quarter
Jan 30
New
Feb 6
First Quarter

Hourly Weather History & Observations

Time (PST) Temp. Windchill Dew Point Humidity Pressure Visibility Wind Dir Wind Speed Gust Speed Precip Events Conditions
12:55 AM 30.0 °F 26.5 °F 23.0 °F 75% 30.14 in 9.0 mi NNE 3.5 mph - N/A   Clear
1:55 AM 28.9 °F - 21.9 °F 75% 30.16 in 9.0 mi Calm Calm - N/A   Clear
2:55 AM 28.0 °F - 21.0 °F 75% 30.15 in 9.0 mi Calm Calm - N/A   Clear
3:55 AM 27.0 °F - 19.9 °F 75% 30.15 in 9.0 mi Calm Calm - N/A   Clear
4:55 AM 27.0 °F - 21.0 °F 78% 30.17 in 8.0 mi Calm Calm - N/A   Clear
5:55 AM 26.1 °F - 19.9 °F 78% 30.18 in 9.0 mi Calm Calm - N/A   Clear
6:55 AM 28.0 °F - 23.0 °F 81% 30.19 in 8.0 mi Calm Calm - N/A   Clear
7:55 AM 32.0 °F - 25.0 °F 75% 30.22 in 9.0 mi Calm Calm - N/A   Clear
8:55 AM 41.0 °F 39.0 °F 28.9 °F 62% 30.23 in 10.0 mi North 3.5 mph - N/A   Clear
9:55 AM 44.1 °F - 30.9 °F 60% 30.23 in 10.0 mi Calm Calm - N/A   Clear
10:55 AM 48.0 °F - 32.0 °F 54% 30.20 in 10.0 mi Calm Calm - N/A   Clear
11:55 AM 54.0 °F - 32.0 °F 43% 30.16 in 10.0 mi East 3.5 mph - N/A   Clear
12:55 PM 57.0 °F - 30.9 °F 37% 30.12 in 10.0 mi Calm Calm - N/A   Clear
1:55 PM 60.1 °F - 32.0 °F 35% 30.09 in 10.0 mi Calm Calm - N/A   Clear
2:55 PM 62.1 °F - 32.0 °F 32% 30.09 in 10.0 mi Calm Calm - N/A   Clear
3:55 PM 63.0 °F - 32.0 °F 31% 30.09 in 10.0 mi Calm Calm - N/A   Clear
4:55 PM 57.0 °F - 30.9 °F 37% 30.10 in 10.0 mi NW 3.5 mph - N/A   Clear
5:55 PM 51.1 °F - 30.0 °F 44% 30.13 in 10.0 mi West 6.9 mph - N/A   Clear
6:55 PM 48.0 °F - 30.0 °F 50% 30.15 in 10.0 mi West 6.9 mph - N/A   Clear
7:55 PM 45.0 °F 43.5 °F 28.0 °F 52% 30.18 in 10.0 mi NNE 3.5 mph - N/A   Clear
8:55 PM 46.0 °F 44.8 °F 28.9 °F 51% 30.17 in 10.0 mi ENE 3.5 mph - N/A   Clear
9:55 PM 44.1 °F 39.5 °F 28.0 °F 53% 30.20 in 10.0 mi SSW 8.1 mph - N/A   Clear
10:55 PM 39.9 °F 32.9 °F 27.0 °F 60% 30.20 in 10.0 mi South 11.5 mph - N/A   Clear
11:55 PM 37.9 °F - 25.0 °F 60% 30.20 in 10.0 mi Calm Calm - N/A   Clear